Wind_Speed
21 19 18 16 14 12 11 11 11 11 10 8 8 8 8 9 10 10 12 12 12 12 12 11 11 10 10 10 10 10 10 10 10 11 11 12 13 13 14 13 13 13 13 12 13 13 14 14 14 14 15 15 15 15 15 16 17 18 19 20 20 20 19 19 19 19 19 18 18 18 17 16 16 15 15 15 15 15 15 14 14 13 12 10 9
19 18 17 14 12 10 10 10 10 9 9 8 8 8 8 8 9 9 10 11 11 11 11 11 11 10 11 10 10 10 10 11 11 11 11 12 13 13 13 13 12 12 13 13 13 13 14 14 14 14 15 16 16 16 16 17 18 20 20 20 20 20 19 19 19 19 19 18 18 17 17 16 15 15 15 15 15 15 14 14 14 13 12 11 9
16 16 15 12 10 8 8 8 8 9 8 8 8 8 8 8 8 8 9 11 11 11 11 10 10 10 10 9 9 10 10 10 10 11 12 12 13 13 12 12 12 12 12 13 13 13 13 13 14 15 16 16 16 16 17 19 20 20 20 20 20 20 20 19 19 19 18 18 17 17 16 16 15 15 15 15 15 14 14 13 13 12 11 10 9
14 13 13 11 8 6 6 6 7 8 8 8 8 8 9 8 8 8 9 10 10 10 10 9 9 9 9 9 9 9 10 10 10 11 12 12 13 13 12 12 12 12 12 13 13 13 12 13 15 16 16 16 16 16 18 20 20 20 19 20 20 20 20 19 19 18 18 17 16 16 16 15 15 15 14 14 14 13 12 12 11 10 9 8 7
12 11 11 10 7 6 5 6 7 8 8 9 9 8 8 8 8 8 9 9 9 9 9 9 9 9 8 8 8 9 9 10 10 10 11 12 12 12 11 11 12 12 12 13 13 13 13 14 16 16 15 16 16 17 19 20 19 20 20 20 20 20 19 19 18 18 17 17 16 16 15 14 14 13 13 13 12 12 11 10 10 9 8 7 6
12 10 10 9 7 7 7 7 8 9 9 9 9 9 8 8 7 7 8 8 8 8 7 7 7 7 7 7 8 8 8 9 10 10 11 11 12 12 11 11 11 12 13 13 13 13 13 14 16 16 15 16 17 18 19 19 19 20 21 20 20 20 19 19 18 17 17 16 16 15 14 13 13 12 12 12 11 11 10 10 9 9 8 7 6
12 11 9 9 8 8 8 8 8 9 9 10 9 8 9 8 8 8 7 7 7 7 6 6 6 6 6 6 7 7 8 9 9 10 10 11 11 12 11 11 11 11 12 13 13 13 13 14 15 15 16 17 18 19 19 19 20 20 20 20 20 20 19 18 17 17 15 15 15 14 14 13 13 11 11 11 11 10 10 10 10 10 9 8 7
12 11 10 9 9 9 8 8 9 9 9 9 9 8 8 8 8 8 7 7 7 6 6 5 5 5 5 5 6 6 7 9 9 9 11 11 11 11 11 11 12 11 12 12 13 13 13 14 15 16 16 17 18 19 19 20 20 20 20 20 20 19 18 18 16 15 15 15 15 15 14 13 13 12 12 11 10 10 11 11 11 10 10 9 9
12 11 10 10 10 9 9 9 8 8 8 8 8 8 8 8 7 7 7 7 7 7 6 6 5 4 5 5 5 6 7 9 10 10 11 12 11 11 11 11 12 11 12 12 13 14 14 14 15 16 17 17 18 19 20 20 19 19 19 19 19 19 18 17 16 15 15 15 15 15 14 13 13 12 12 12 11 11 11 12 11 11 10 10 9
12 11 11 10 10 9 9 9 8 7 7 7 7 8 8 8 8 7 7 7 8 8 7 7 6 5 6 5 5 6 7 9 10 10 12 13 12 11 11 11 12 11 12 13 14 14 15 15 16 16 17 18 18 19 20 20 19 19 19 19 18 18 17 16 15 15 15 15 15 14 13 13 13 13 13 13 13 12 12 12 12 11 11 10 9
12 12 11 10 9 9 8 8 8 7 7 8 8 8 9 9 9 9 9 9 9 8 9 8 7 6 6 6 6 7 8 10 10 11 12 13 13 12 12 12 12 12 12 13 14 15 15 16 16 17 18 18 18 19 19 19 19 19 18 18 18 17 16 15 15 15 15 15 14 14 13 13 13 13 13 13 13 13 13 13 12 12 12 11 10
11 11 10 9 8 8 7 7 7 7 8 8 9 9 9 9 10 11 11 11 10 9 10 10 9 8 7 8 7 8 9 10 10 11 12 13 13 13 13 12 12 12 12 13 14 15 16 16 17 18 19 19 19 19 19 19 19 19 18 17 16 15 15 14 14 15 15 14 14 13 13 14 14 14 14 14 14 14 14 14 14 13 12 12 12
9 9 8 7 7 6 6 7 7 7 8 9 10 10 11 12 12 12 12 11 11 11 12 10 9 9 8 8 9 9 10 10 10 11 13 13 13 13 13 12 12 12 13 14 15 16 16 16 17 19 20 19 19 18 18 19 19 18 17 16 15 15 14 14 14 14 14 14 14 14 14 15 15 15 15 15 15 15 15 16 16 15 13 13 14
8 7 6 6 5 5 5 6 6 7 8 10 11 12 13 13 12 12 12 11 13 13 12 10 10 10 9 9 10 10 11 11 10 12 13 13 13 13 13 13 12 12 13 15 16 16 17 17 18 19 20 20 19 18 19 19 19 17 15 15 14 14 14 14 14 14 14 14 14 15 15 16 16 16 16 16 16 15 16 17 17 16 16 15 15
7 6 5 4 4 4 4 5 6 7 8 10 11 11 11 11 10 11 11 12 13 14 13 12 12 11 11 11 10 10 11 12 11 13 14 13 13 13 13 13 13 13 14 16 16 16 17 18 19 20 20 20 19 19 19 19 18 16 14 14 14 14 14 14 14 14 15 15 15 16 17 17 17 16 16 17 17 16 17 17 18 18 17 17 16
5 4 4 4 4 4 4 5 5 6 8 9 10 9 9 9 9 9 10 12 13 13 14 15 15 14 13 13 11 11 11 12 12 14 14 13 14 14 13 13 13 14 16 17 17 17 18 19 20 20 20 19 19 18 18 18 17 15 14 14 14 14 15 14 14 15 15 16 17 17 18 18 17 17 18 18 18 17 17 18 18 19 18 17 17
4 4 4 4 4 4 4 5 5 6 8 9 9 8 8 8 8 8 10 12 13 14 16 17 17 17 16 15 12 12 12 12 13 15 16 14 14 14 14 14 14 16 16 17 17 18 19 20 20 20 19 19 19 18 18 17 15 14 14 14 14 15 15 15 15 15 16 17 18 18 19 19 19 19 20 20 19 19 19 19 20 20 19 18 18
4 4 4 4 4 4 4 5 5 5 6 7 7 7 8 7 7 8 9 11 13 15 16 18 17 16 16 15 14 13 12 12 13 15 16 15 15 14 14 14 16 17 17 17 18 19 20 21 20 20 19 19 19 18 17 16 15 14 14 14 14 15 15 15 16 16 17 18 19 19 20 21 21 21 21 21 20 20 20 21 21 22 21 19 18
3 3 4 4 3 3 4 4 5 4 4 5 5 6 7 6 7 9 10 10 13 15 15 16 15 15 16 15 14 14 14 14 14 14 15 15 15 14 14 15 16 17 17 17 18 19 21 20 20 19 19 19 18 17 16 15 14 13 14 14 15 16 16 16 17 17 18 19 19 20 21 21 21 22 22 22 21 21 21 22 23 24 23 20 17
3 2 3 3 3 3 3 3 4 3 3 4 5 6 6 6 7 9 10 11 13 14 15 15 14 16 16 15 14 15 16 16 15 14 14 15 15 15 15 16 16 17 17 17 18 20 20 20 20 19 19 18 18 17 15 14 13 14 14 15 16 17 17 18 18 19 19 19 19 20 21 21 21 21 22 22 22 21 22 22 23 25 25 21 17
3 2 2 2 3 3 2 3 2 2 3 4 6 5 5 6 7 8 9 11 12 12 14 16 15 16 16 16 14 16 17 17 16 14 15 16 16 16 16 16 16 17 17 18 19 20 20 20 20 19 18 18 17 16 15 14 14 14 15 16 17 18 19 19 20 20 19 19 20 20 21 21 21 21 21 22 22 22 22 23 24 25 28 25 19
4 3 2 2 2 2 2 2 3 3 3 4 5 5 6 6 6 7 7 10 11 12 14 15 16 16 16 17 15 16 17 17 16 15 16 17 17 17 17 17 17 17 18 18 20 20 20 20 19 19 18 17 17 15 14 14 14 15 16 18 19 20 20 21 20 19 18 19 20 20 20 20 21 21 21 22 22 22 22 24 24 26 31 30 23
5 5 3 3 3 3 4 3 3 3 3 4 5 5 6 7 5 6 8 10 11 13 13 14 15 17 18 18 17 16 16 16 16 16 18 18 19 18 17 17 17 17 18 19 20 20 20 20 19 18 17 17 16 15 14 14 15 16 18 20 21 21 21 21 20 18 18 19 20 20 20 20 21 21 22 22 22 22 23 24 25 26 31 33 28
6 5 4 5 5 4 4 3 3 3 3 5 5 6 7 8 7 8 9 10 11 14 15 14 16 19 19 19 19 17 16 17 18 18 19 19 18 17 17 17 17 17 18 19 20 20 20 20 19 18 17 16 16 15 14 15 16 18 20 21 22 21 21 20 19 18 18 19 20 19 19 20 21 22 22 22 22 23 23 24 25 26 28 31 31
6 6 6 6 6 5 4 4 4 4 4 6 6 8 8 8 8 10 10 11 12 16 17 16 16 18 19 19 19 18 18 18 19 20 20 19 17 17 17 17 17 17 18 19 20 20 20 20 19 18 17 16 15 15 15 15 17 19 21 22 21 21 20 20 19 18 19 19 19 19 19 20 21 22 22 23 23 23 24 25 26 27 27 28 31
7 7 6 6 6 5 5 5 5 6 6 7 8 8 9 9 9 11 12 13 14 16 18 17 16 17 19 19 20 20 20 20 21 21 20 18 17 17 17 17 18 17 18 19 20 20 20 20 19 17 16 16 16 16 16 16 17 20 21 22 21 20 20 20 19 18 18 18 19 19 19 20 21 22 22 23 23 24 25 25 26 27 28 27 29
7 7 6 6 6 5 5 5 6 7 8 8 9 9 10 10 11 12 14 14 15 17 18 18 17 18 19 20 21 22 22 22 21 21 20 18 17 17 17 17 17 18 18 19 20 20 20 19 18 17 16 16 16 16 16 16 18 19 21 21 20 20 20 19 19 18 18 18 18 19 19 20 20 21 22 22 23 24 24 25 26 27 27 27 28
8 7 6 7 6 6 6 6 8 9 9 9 9 10 10 11 12 13 14 15 16 17 18 18 18 19 20 21 23 23 22 22 21 20 19 18 17 16 16 17 17 18 18 19 19 19 19 19 18 17 16 15 15 16 16 17 18 19 20 20 20 20 20 19 18 18 18 17 18 18 19 19 20 20 21 21 22 23 24 24 25 26 26 26 27
9 7 7 7 7 7 7 8 9 10 10 10 10 10 11 11 13 14 15 16 18 19 19 19 19 20 22 24 24 23 22 21 21 20 19 17 16 15 15 16 17 17 17 18 18 19 19 19 18 17 16 15 15 15 16 16 17 19 20 20 20 20 19 19 18 18 18 17 17 17 18 18 18 19 19 20 21 22 23 24 24 25 25 25 26
10 8 8 8 8 8 9 9 10 11 11 11 10 11 11 13 14 15 17 18 19 20 20 20 20 22 24 24 23 22 22 21 20 19 18 16 15 15 15 15 15 16 17 17 16 17 18 19 18 17 16 15 15 15 15 16 16 18 19 19 19 19 19 18 17 17 17 16 16 16 17 17 17 17 17 18 19 21 22 23 24 24 24 24 25
10 9 9 9 9 9 10 11 11 12 12 11 12 12 13 14 15 16 18 19 20 21 21 21 22 24 24 22 22 21 21 20 19 18 16 15 14 14 14 14 14 15 15 16 16 16 17 18 18 16 15 14 15 15 15 15 16 17 18 19 19 19 18 18 17 17 17 16 15 15 15 15 15 15 16 17 18 19 20 22 23 23 23 24 25
11 10 9 9 9 10 11 12 12 12 12 12 13 13 14 15 16 17 18 19 20 21 21 22 23 24 23 22 21 21 20 19 18 17 16 15 14 14 13 13 13 13 14 15 16 16 17 17 17 16 15 14 15 15 16 15 15 16 17 18 18 18 18 17 17 17 16 15 15 14 14 14 14 14 14 15 16 17 18 20 21 22 23 23 24
11 10 10 10 9 10 11 13 13 13 13 13 14 14 15 16 17 17 18 19 20 20 21 22 23 23 22 21 20 20 19 18 17 17 16 15 14 13 12 12 12 13 13 14 16 17 16 15 15 15 14 14 14 15 16 15 15 16 17 17 17 17 17 17 16 15 15 14 14 13 12 12 12 12 13 14 14 15 16 17 19 21 22 22 23
10 10 10 10 10 10 11 13 13 14 14 13 14 15 15 17 18 18 18 19 19 20 20 21 21 21 20 19 18 18 17 17 17 16 16 15 14 13 12 11 11 12 12 14 16 17 16 14 14 14 14 14 14 15 15 15 15 15 15 16 16 16 16 15 15 14 14 13 13 12 12 11 10 11 12 13 13 14 14 15 17 18 20 21 22
9 10 10 10 10 10 11 12 13 14 15 14 15 15 16 17 18 18 19 19 19 19 19 19 19 19 18 17 17 16 16 16 16 15 15 14 13 13 12 11 11 11 12 13 14 16 16 15 13 14 13 13 14 14 15 14 14 14 14 14 14 14 13 14 14 14 13 13 13 12 12 11 10 9 10 11 12 13 14 14 15 16 18 19 21
9 10 10 10 11 11 11 12 13 14 15 15 16 16 16 16 17 18 18 18 18 18 18 18 18 17 17 16 15 14 14 14 14 14 14 13 13 13 12 11 11 11 11 13 14 15 15 15 14 14 14 13 13 13 13 14 13 12 12 12 12 12 11 11 12 12 12 12 12 12 12 12 11 10 10 10 11 13 13 14 14 16 17 18 20
9 9 10 10 11 11 11 12 12 14 15 16 16 16 16 17 17 17 17 17 17 17 17 17 16 16 15 14 14 13 13 14 14 14 13 13 13 13 12 12 11 11 11 12 13 13 14 15 15 15 15 14 13 12 12 13 13 12 11 11 11 10 10 9 9 9 9 10 11 11 12 12 11 11 10 10 11 12 13 14 15 16 17 17 19
9 10 11 11 12 12 11 12 13 14 15 15 15 16 16 17 17 17 17 16 16 16 16 16 15 15 15 14 14 14 14 14 14 14 13 12 12 12 11 10 10 10 10 11 11 12 13 15 15 15 15 14 13 13 12 12 11 11 10 9 9 8 8 7 7 7 7 7 8 9 9 10 10 10 10 10 11 11 12 13 14 16 17 17 18
9 10 11 12 13 13 12 12 12 13 14 14 14 15 16 17 17 17 16 15 15 15 15 15 15 15 15 14 14 14 14 14 13 13 12 11 11 10 9 9 9 9 9 9 10 12 13 14 14 15 15 15 14 13 12 11 10 10 9 8 7 7 6 6 6 5 5 5 6 7 7 8 9 9 10 10 10 10 11 12 13 15 16 17 18
10 10 11 11 12 13 13 12 12 13 13 13 13 14 14 15 16 15 15 14 14 14 15 15 15 15 14 14 14 13 13 13 12 12 11 10 9 9 9 9 9 8 8 8 9 12 13 14 14 15 15 15 14 14 13 11 10 9 8 7 6 5 5 5 4 4 3 4 4 5 6 7 8 9 9 9 10 10 11 11 13 14 15 16 18
10 10 9 10 11 12 13 12 11 12 12 12 12 12 13 13 13 13 12 12 13 14 14 15 15 15 14 14 13 12 12 12 12 12 11 10 10 10 9 8 8 8 8 8 9 11 12 13 14 14 15 15 14 14 13 11 9 9 8 7 5 5 4 4 3 3 3 4 4 5 6 6 6 7 8 9 10 11 11 12 13 13 14 15 17
8 8 8 9 11 11 12 12 11 11 12 13 12 12 12 12 12 12 12 12 12 13 13 14 14 14 13 13 12 12 12 12 12 12 12 11 10 10 9 8 8 9 9 9 9 10 11 12 12 13 14 14 13 13 12 11 9 8 8 8 6 5 4 3 3 3 2 3 3 5 6 6 6 7 8 10 10 11 12 12 13 13 13 14 15
9 9 9 9 10 11 12 12 12 12 13 14 14 14 13 13 13 13 13 13 13 14 14 13 13 13 13 12 12 13 13 12 12 12 11 11 10 9 8 8 8 9 9 9 9 9 10 10 11 12 13 12 12 11 11 11 10 8 8 9 8 6 5 3 2 1 1 2 3 5 6 7 7 8 9 10 11 11 12 12 12 13 13 13 14
10 10 9 9 10 10 11 12 13 14 14 15 15 15 15 14 14 14 15 14 14 14 14 13 13 13 13 12 12 13 13 12 12 11 11 10 10 9 9 8 8 8 8 9 9 9 9 10 10 12 12 11 11 11 11 11 10 10 9 9 8 6 6 5 4 3 1 2 3 5 6 6 6 8 10 11 10 11 11 12 12 12 13 13 14
11 10 9 9 9 10 11 12 14 14 14 15 15 15 14 13 13 13 14 14 13 13 13 12 12 12 12 12 12 12 12 11 11 10 10 10 10 9 9 8 8 8 8 9 9 9 9 9 10 11 11 11 11 11 12 11 11 10 9 8 7 6 6 6 4 3 1 2 3 4 6 6 5 7 10 9 9 10 11 12 11 11 13 13 13
11 10 10 9 9 10 11 12 14 15 14 15 15 14 13 12 10 9 9 9 10 11 11 11 12 12 12 12 13 13 12 11 11 10 10 10 10 9 8 8 8 8 8 8 8 8 9 9 9 10 10 10 11 11 12 12 12 11 10 8 7 5 5 5 4 2 2 2 2 3 5 5 4 7 9 8 8 10 11 12 12 12 12 13 13
12 11 11 10 10 10 10 12 13 15 14 13 13 13 12 11 10 9 9 9 9 10 12 12 13 13 13 13 13 13 12 11 11 10 9 9 9 8 8 8 8 7 7 7 7 8 8 9 9 9 9 10 11 11 11 12 11 10 9 8 6 5 5 4 3 3 2 1 2 3 4 5 5 7 9 8 7 9 11 13 13 12 13 14 15
13 12 12 12 10 10 10 11 13 14 14 13 12 12 12 11 11 10 10 11 11 11 12 13 13 13 13 13 13 13 12 12 11 10 9 9 9 8 8 7 7 7 7 7 7 8 8 9 9 8 8 10 11 10 10 11 11 10 9 7 6 5 5 4 3 3 3 4 5 5 5 6 6 6 8 8 8 9 10 12 12 12 13 14 15
14 13 12 12 12 11 11 11 12 13 14 14 13 13 13 12 12 12 11 12 12 12 12 13 13 13 13 13 13 12 12 11 11 10 9 9 9 9 8 7 7 7 6 6 6 7 7 8 8 8 9 9 11 10 10 11 11 10 9 7 7 6 4 4 4 5 5 6 6 7 6 6 6 6 6 7 8 8 9 10 11 11 12 12 13
14 14 13 13 13 12 12 11 12 13 14 15 15 15 14 14 14 14 14 13 12 11 10 11 12 12 12 12 12 11 11 11 10 10 9 9 9 8 8 7 6 6 6 5 5 6 6 7 8 9 9 10 11 10 10 11 12 11 10 9 8 7 5 5 6 7 7 7 8 8 8 8 8 8 7 7 8 9 9 10 11 10 10 11 12
16 15 15 15 14 13 12 12 12 13 14 15 16 16 16 15 15 15 15 14 12 11 9 9 10 10 10 11 11 11 11 11 10 10 9 9 9 8 8 7 6 6 6 6 6 6 7 7 8 9 10 11 11 11 10 11 12 12 11 10 9 8 7 7 8 8 8 9 9 9 9 10 10 10 9 8 8 9 9 10 11 10 10 10 11
Wind_Direction
154 148 147 142 137 139 138 136 133 132 129 121 111 110 107 102 102 101 102 102 103 104 106 107 107 105 102 102 102 101 100 102 105 110 112 112 115 116 114 111 109 107 105 101 99 95 90 87 85 83 84 83 82 80 80 82 85 88 89 90 90 90 89 88 87 86 85 83 82 80 78 76 74 73 70 69 67 68 69 69 71 73 77 79 80
160 158 155 150 145 144 140 137 135 132 124 120 122 126 119 113 116 116 114 110 110 109 109 108 105 102 100 101 102 101 100 102 107 114 116 116 118 117 115 111 108 107 106 102 98 93 90 89 86 87 87 83 81 81 84 86 89 91 91 91 90 90 89 88 87 85 84 81 79 77 75 73 71 69 67 65 63 62 61 60 60 62 65 69 71
161 166 167 166 160 152 139 136 136 132 125 124 130 137 131 127 128 126 122 119 118 114 112 108 104 102 102 103 104 105 104 103 109 118 120 121 121 119 115 109 108 108 106 102 98 94 91 88 88 92 88 83 82 83 88 91 92 93 92 92 91 91 89 88 86 83 81 78 76 74 73 71 68 66 63 60 56 53 50 50 51 53 56 60 64
158 166 173 177 173 160 144 139 137 135 132 129 133 141 137 135 135 134 131 127 123 118 115 110 106 104 104 104 105 108 106 105 109 117 121 123 122 118 114 110 109 108 105 103 101 97 90 87 90 91 85 85 86 88 93 95 95 95 94 93 92 90 87 85 82 80 78 76 74 73 71 69 65 62 58 53 47 44 41 40 42 44 48 52 57
159 165 171 174 174 166 151 144 141 141 136 132 136 139 138 139 139 142 139 133 127 122 120 114 109 105 103 101 101 105 107 108 108 115 122 125 123 119 118 114 111 107 104 102 102 100 92 89 91 87 85 89 90 94 98 98 97 96 94 92 90 87 84 82 80 78 77 75 72 69 66 63 59 55 51 46 40 37 35 34 34 36 39 42 46
158 162 167 169 171 164 152 146 144 142 135 133 138 140 140 142 142 144 142 138 134 128 125 118 111 107 105 101 100 106 113 114 111 116 124 127 125 123 122 115 110 107 105 105 104 101 94 93 93 90 90 93 94 99 100 98 97 96 92 89 88 86 84 83 81 78 75 72 68 63 58 53 49 47 46 42 35 33 32 32 32 32 33 34 35
159 163 167 170 167 157 149 143 141 140 136 137 142 145 148 148 145 145 147 148 143 138 135 126 121 117 111 107 104 109 118 121 117 119 124 128 128 127 125 118 113 108 108 110 109 104 97 96 96 93 95 99 100 101 100 99 97 94 91 89 88 87 86 83 79 74 69 65 62 58 52 47 44 44 47 46 38 33 32 33 34 33 32 32 31
160 163 167 167 164 154 148 145 144 145 144 147 152 157 160 159 156 156 161 164 160 155 149 144 143 132 122 116 112 113 120 127 125 123 127 131 132 131 128 121 116 111 110 111 110 105 100 99 98 95 98 103 104 103 102 100 96 93 91 90 89 87 84 78 73 67 63 60 57 55 51 47 45 46 49 50 45 38 35 33 35 35 34 31 29
159 162 164 163 162 158 154 152 153 157 159 163 166 172 175 174 173 175 180 182 181 174 168 167 161 151 138 132 128 122 125 132 132 130 132 134 136 135 130 122 114 114 116 113 111 107 104 104 100 98 101 106 105 104 103 100 95 92 91 90 88 84 79 73 68 63 61 59 57 54 52 50 49 49 48 47 45 41 38 34 32 34 34 33 30
160 160 160 160 161 162 161 162 167 173 178 181 184 190 192 191 189 192 200 199 199 188 180 181 173 166 153 151 149 135 132 136 135 135 137 136 139 138 131 123 116 116 117 115 112 107 108 107 104 103 106 108 106 105 104 100 95 93 92 89 85 80 75 71 66 64 63 61 58 56 54 54 53 51 48 45 42 41 40 37 34 34 34 34 33
160 158 159 161 164 168 171 175 183 191 200 203 206 210 211 209 206 206 213 212 211 204 193 188 183 175 162 165 159 144 138 138 137 138 142 140 141 139 131 126 122 119 116 115 113 110 111 109 107 109 111 110 107 106 104 99 97 95 92 87 81 76 73 71 69 68 66 63 61 59 58 57 56 53 49 46 42 41 40 39 37 36 35 33 31
159 159 162 166 169 178 184 191 199 209 218 223 225 226 226 225 221 219 221 220 219 216 209 195 185 184 172 172 164 149 142 140 141 142 145 143 141 139 132 127 124 121 119 116 113 113 114 112 111 113 114 112 109 107 103 100 99 95 90 84 79 75 73 72 73 71 68 66 64 63 61 60 58 55 53 49 45 42 40 40 37 34 33 31 30
159 161 166 174 183 194 202 209 214 221 228 232 234 233 232 227 223 223 224 223 224 222 219 205 190 191 180 173 167 153 145 142 144 146 148 145 141 138 131 126 122 121 121 117 115 116 116 115 116 118 117 116 114 110 106 103 98 93 88 84 80 77 75 75 75 73 71 69 68 66 65 63 61 58 56 52 48 43 41 41 38 35 31 30 30
160 166 175 188 202 214 222 228 228 231 235 236 236 232 228 224 218 221 221 220 225 222 217 211 201 195 181 171 166 156 149 147 147 149 149 145 141 137 131 126 122 122 121 118 118 119 119 119 121 122 121 120 118 112 107 102 96 92 88 84 81 79 77 75 74 73 74 72 71 70 69 67 65 62 60 56 51 46 43 42 40 37 33 30 29
165 174 187 206 227 241 245 245 244 243 242 239 236 232 231 234 227 221 217 217 221 217 211 206 200 192 177 167 163 158 154 151 150 150 149 145 141 137 134 129 125 124 121 119 120 121 123 125 126 125 124 121 116 111 107 101 96 92 88 85 82 80 77 75 74 75 76 75 75 74 72 70 67 65 61 58 53 49 45 43 42 40 37 32 31
176 188 205 223 238 248 248 245 248 245 243 240 235 235 238 244 239 224 214 215 216 212 208 202 192 182 170 163 162 158 155 151 151 150 147 145 141 137 136 132 128 124 122 121 122 124 127 129 128 126 124 120 114 111 107 101 97 92 88 85 82 79 77 77 77 78 79 78 77 76 75 72 69 66 62 58 54 50 48 46 45 43 40 35 34
202 216 224 233 238 232 230 229 234 238 238 236 232 233 234 235 233 222 216 213 211 210 207 203 190 173 163 158 158 157 153 151 153 151 148 147 142 139 138 134 127 123 123 124 125 126 129 130 129 128 125 120 116 112 106 100 96 91 87 84 82 80 79 80 81 82 82 81 79 77 75 73 70 67 64 60 56 53 50 49 48 46 43 37 36
218 229 233 236 234 219 221 222 226 231 232 231 225 224 224 224 218 211 216 212 211 212 205 205 190 164 156 155 156 157 154 151 154 153 151 148 143 141 139 134 127 125 127 127 128 128 131 132 131 131 126 121 116 110 104 99 93 89 87 84 82 82 83 85 86 86 85 83 80 77 74 71 69 67 64 62 58 55 52 50 50 49 45 40 39
216 221 224 228 230 221 222 225 229 231 233 234 220 212 212 216 210 203 212 210 212 213 203 203 185 155 154 157 157 157 153 151 154 156 152 146 143 142 138 133 128 127 130 129 129 131 134 134 133 132 126 119 114 110 103 97 92 89 88 86 86 87 89 90 90 89 87 84 80 78 75 72 70 67 65 61 58 55 52 51 50 49 46 42 41
190 197 215 224 224 219 215 215 222 230 231 231 221 212 208 215 214 204 208 205 207 206 196 195 175 155 158 159 160 159 155 153 157 159 152 145 142 142 137 133 130 130 131 130 132 136 137 136 135 131 124 120 116 110 103 97 93 91 90 89 91 93 94 94 93 91 88 85 82 79 77 74 71 67 64 61 58 55 53 51 50 50 47 41 40
158 163 174 202 207 203 193 187 186 186 188 208 213 203 200 208 205 197 202 202 197 189 188 187 166 156 159 157 160 161 156 155 160 160 149 145 142 139 138 135 133 133 133 133 135 139 139 138 136 131 125 122 116 109 102 98 95 94 94 95 97 98 98 97 95 91 89 86 83 80 78 75 71 68 66 63 60 56 54 52 51 52 50 44 38
141 135 132 152 169 152 140 139 132 139 155 184 196 181 183 193 182 176 191 199 187 175 183 180 159 154 157 154 156 155 154 155 159 155 146 144 141 140 140 139 137 136 136 136 138 140 141 140 136 131 127 122 115 108 103 100 97 98 100 101 101 101 101 98 95 92 89 86 83 81 78 76 73 71 68 64 61 57 54 52 51 53 55 52 42
126 121 114 116 119 113 112 114 116 129 144 163 173 162 173 182 162 159 183 193 177 166 177 174 154 152 153 152 152 149 151 155 153 148 145 143 141 142 143 142 141 140 138 138 140 142 142 141 138 133 129 122 114 109 104 102 100 102 104 103 104 104 102 98 94 91 88 85 83 81 78 76 74 71 68 65 62 58 55 53 52 52 58 62 52
116 112 106 105 107 108 107 108 112 117 134 142 142 144 162 172 154 152 173 180 165 158 165 167 156 151 150 151 150 149 151 151 146 143 142 141 142 144 145 145 143 141 140 140 141 143 143 142 139 135 130 123 114 109 105 103 103 105 105 105 105 104 101 97 93 89 87 85 82 80 78 76 74 72 70 68 65 62 58 55 52 50 54 63 62
118 114 108 107 106 110 115 112 107 102 121 131 129 137 152 162 153 149 160 163 156 153 157 163 159 150 148 149 148 147 147 144 142 141 140 141 144 146 146 146 144 143 142 142 143 144 145 144 141 137 132 123 116 111 107 104 105 107 106 106 106 104 101 96 91 88 86 85 82 80 78 76 75 74 73 70 68 64 60 56 53 50 48 54 59
125 123 115 109 108 111 113 107 105 102 114 127 132 141 146 152 148 143 149 153 155 154 154 158 154 148 146 146 145 144 143 142 143 141 141 143 147 147 148 147 145 145 144 145 146 146 147 145 143 140 134 125 119 114 109 107 108 108 107 107 108 105 101 95 90 87 85 83 81 79 77 76 75 74 72 69 67 64 60 56 53 50 47 46 48
129 126 121 114 111 111 109 104 108 106 109 120 131 137 139 142 141 139 142 148 154 154 151 151 148 145 144 144 143 143 143 143 143 142 142 145 147 148 148 147 146 146 146 147 148 149 148 147 146 143 135 127 122 116 112 111 111 110 110 109 109 106 102 96 90 87 85 83 80 79 76 74 73 71 68 67 66 63 59 55 52 50 48 45 44
128 125 124 119 115 112 109 108 111 111 108 114 123 129 134 136 135 136 139 142 146 147 146 146 145 144 143 144 145 144 144 144 144 143 143 146 148 148 146 145 146 147 147 147 150 151 151 149 148 144 136 130 123 118 115 115 115 114 112 112 110 107 103 97 92 89 87 84 81 78 76 74 71 68 66 64 63 60 57 54 51 49 47 44 43
129 128 128 123 118 114 113 113 113 113 110 113 118 125 132 134 133 135 138 138 139 141 142 142 143 143 144 146 145 144 144 145 146 145 145 147 147 144 143 144 146 147 146 146 150 153 153 153 152 146 139 132 125 119 117 116 116 116 115 114 112 109 105 100 95 92 89 87 83 79 76 73 70 66 63 61 59 57 54 51 49 48 45 43 41
133 131 130 127 120 116 117 116 116 115 113 113 116 121 129 133 132 134 137 137 138 140 141 142 142 143 144 145 144 143 145 146 147 147 146 145 142 140 140 140 142 146 145 145 148 154 156 156 155 149 141 134 126 121 118 115 115 115 115 116 114 111 107 102 96 93 91 89 86 81 76 72 69 65 61 58 57 55 52 49 46 44 43 41 39
134 131 130 128 123 120 121 118 118 118 116 114 114 119 125 131 132 133 137 139 140 142 142 142 143 144 144 143 143 144 146 148 148 146 145 142 139 138 138 136 138 142 145 145 146 153 158 158 157 152 144 137 128 122 119 116 115 115 116 117 116 113 109 103 98 93 91 90 87 82 76 72 68 63 59 56 55 53 51 48 44 41 40 39 38
136 134 133 129 124 122 122 120 120 122 121 117 115 118 123 129 133 134 138 140 142 144 144 144 144 146 145 145 146 148 148 148 147 146 145 143 141 140 138 137 138 142 148 148 147 151 157 159 158 155 149 141 132 125 121 118 116 115 117 119 118 115 111 106 100 95 91 88 86 82 77 71 67 62 58 54 52 50 49 46 43 40 38 37 37
140 138 135 130 126 125 125 123 125 127 125 120 116 117 120 126 132 137 140 142 144 145 145 145 147 148 148 148 149 149 148 148 148 148 147 146 144 141 139 139 141 146 150 152 150 150 153 158 160 159 154 146 136 128 125 122 118 116 117 119 119 117 114 110 103 97 93 88 85 80 76 70 65 61 56 50 47 45 44 43 41 39 37 35 34
142 140 136 128 127 128 128 128 129 131 129 124 118 116 119 125 131 136 139 142 143 144 145 146 148 149 148 148 148 147 148 149 149 149 148 147 144 142 142 143 145 148 151 154 155 152 152 156 165 167 161 152 141 132 129 126 122 120 120 121 121 119 115 111 105 99 95 89 84 78 73 68 62 57 51 45 41 38 36 36 37 36 34 33 31
142 143 139 131 130 130 132 133 132 133 133 130 124 120 120 125 130 134 137 138 140 141 142 145 146 146 145 145 145 146 148 149 150 150 149 147 147 146 145 147 149 152 154 157 159 158 155 157 169 177 172 160 148 138 131 127 127 127 127 126 123 121 116 111 106 101 97 91 84 78 71 65 58 50 43 40 36 31 28 27 29 30 29 29 29
144 145 144 138 136 136 137 138 135 135 138 137 133 129 126 128 132 134 136 137 138 139 141 143 144 144 144 144 146 147 147 148 149 148 149 150 151 149 148 151 155 158 159 160 162 162 159 160 171 182 179 169 156 141 131 129 132 133 134 134 131 127 120 112 107 102 98 93 87 79 72 65 58 51 46 42 37 30 26 24 24 26 25 26 27
146 146 147 145 143 144 143 142 140 137 139 141 140 138 136 135 135 137 138 140 141 142 143 144 146 146 147 148 148 147 146 146 147 148 151 154 155 154 154 156 158 161 161 162 163 164 163 163 171 183 183 175 160 146 139 138 138 139 139 139 138 134 126 117 109 103 98 94 87 80 72 64 59 55 51 46 38 32 28 25 24 24 22 22 25
151 151 151 152 149 150 151 147 145 142 142 145 145 146 146 144 143 143 143 144 145 146 147 147 148 149 148 149 147 146 146 147 148 150 153 156 156 156 157 159 160 162 163 162 163 166 166 164 170 183 187 180 166 153 150 151 148 147 147 145 142 137 128 120 111 104 100 95 87 78 70 63 58 54 49 44 38 34 28 24 23 23 21 19 21
157 158 155 157 156 153 154 153 151 149 149 150 151 152 152 151 150 150 149 150 151 150 152 152 151 150 148 148 148 148 149 150 151 152 153 156 155 155 158 161 164 165 163 162 165 169 169 166 171 184 190 185 173 164 160 161 160 158 156 155 150 141 129 119 109 103 102 99 92 82 72 62 54 49 44 40 37 34 29 22 20 21 21 19 18
161 163 161 161 161 157 155 157 156 154 154 152 153 153 154 155 155 155 155 155 156 156 156 155 153 151 151 152 152 152 152 153 152 152 152 153 153 155 160 164 166 167 164 164 170 174 173 171 173 182 188 186 180 177 173 169 170 171 168 165 161 149 134 128 122 117 113 103 93 82 72 61 52 45 39 34 31 29 26 20 15 17 19 17 17
166 165 166 166 165 161 157 159 158 155 152 147 148 152 152 155 157 159 161 159 159 159 159 157 155 155 156 157 156 156 156 155 153 152 153 154 155 160 163 166 169 172 172 172 175 177 179 177 174 179 183 183 184 186 186 182 181 183 179 172 168 157 140 141 149 152 138 109 86 71 63 53 44 41 33 25 20 16 16 15 10 10 12 14 14
168 166 171 172 170 168 163 161 159 154 151 146 146 151 152 155 159 163 165 163 161 162 162 161 160 159 159 160 160 160 159 157 156 155 155 156 159 162 164 170 176 181 181 178 178 179 181 180 178 178 178 179 184 188 193 194 193 192 186 178 174 170 159 152 157 159 144 115 88 71 61 46 38 41 34 20 12 8 8 8 5 1 4 9 10
172 172 178 179 176 174 168 163 160 158 156 152 150 153 156 159 162 164 166 167 167 167 168 166 164 162 160 163 163 161 160 160 160 158 155 155 159 160 163 171 178 182 183 181 181 179 178 178 179 177 173 175 183 189 195 199 199 197 192 187 185 187 187 184 188 186 117 103 92 73 62 50 47 48 37 23 13 9 7 6 3 357 359 4 6
179 177 179 183 183 176 172 168 164 164 162 159 158 159 161 163 164 166 168 170 172 173 172 169 165 163 163 164 163 162 162 161 160 158 157 157 160 160 165 171 172 174 180 183 184 181 176 174 177 177 173 175 185 193 198 202 202 202 202 200 201 202 203 208 231 265 295 99 78 57 53 56 57 46 34 25 17 12 8 7 6 360 0 4 4
185 181 178 186 189 178 175 176 171 169 170 167 166 166 166 168 167 167 169 171 171 171 172 169 164 162 163 163 163 165 165 162 161 161 162 164 164 164 167 171 168 166 172 179 183 183 177 174 178 180 177 178 186 196 202 205 205 207 209 210 211 215 217 222 235 253 212 120 61 36 46 62 60 34 28 27 18 10 4 4 7 6 4 6 5
188 184 181 189 194 183 180 184 179 174 176 176 173 171 171 169 163 159 159 163 164 164 167 168 165 165 167 167 167 168 169 167 166 167 168 169 170 170 169 167 164 164 167 173 180 183 181 179 181 185 186 186 190 198 205 208 209 211 213 214 213 219 231 240 239 225 179 130 60 30 43 52 36 16 19 25 16 5 359 359 4 8 9 9 8
192 190 188 192 196 191 185 187 185 179 180 182 178 175 174 169 160 156 153 155 160 165 168 171 173 173 173 174 173 172 174 174 173 173 172 170 170 169 165 162 162 164 166 169 178 186 189 187 188 192 194 197 199 202 208 211 213 215 218 220 220 227 238 244 244 245 253 324 353 4 21 19 6 10 19 22 10 359 356 358 1 7 11 11 9
194 198 196 196 196 195 191 189 189 185 181 181 182 180 176 171 166 163 163 163 167 171 174 176 179 179 178 179 180 179 180 179 176 176 174 170 168 166 163 162 163 165 168 171 177 185 191 194 196 198 198 201 204 207 212 216 217 220 225 232 241 247 247 250 261 278 303 328 335 344 358 358 354 8 18 15 3 352 351 354 358 4 11 10 9
197 203 204 203 202 201 196 191 190 188 182 178 180 182 179 175 173 170 172 176 177 177 179 179 179 182 183 184 184 184 184 182 178 177 176 175 173 168 165 167 169 170 173 176 180 186 193 197 201 204 202 204 206 210 217 222 224 225 230 240 251 259 268 282 300 309 320 331 332 334 340 342 345 355 1 357 352 347 345 346 350 2 11 9 7
200 207 209 207 206 206 202 196 192 190 186 181 180 182 183 181 178 176 179 186 188 185 185 180 177 180 185 187 187 188 189 187 184 182 182 182 179 175 173 174 177 174 173 178 183 191 199 204 210 212 209 208 209 211 217 226 230 232 236 240 249 261 278 298 313 322 329 333 331 331 334 338 343 347 343 336 337 341 343 341 343 357 9 6 3
202 207 210 210 208 208 208 203 199 195 192 188 185 184 186 185 183 182 183 188 190 190 190 187 184 182 183 187 189 190 191 191 190 190 189 187 183 184 185 183 184 179 176 183 190 194 200 208 214 214 212 211 211 211 215 224 232 239 244 245 249 259 272 292 307 317 328 333 331 329 332 337 338 336 333 327 328 335 339 336 336 345 355 359 1
Height
3180 3181 3182 3184 3184 3185 3186 3186 3186 3186 3186 3186 3185 3186 3186 3186 3187 3187 3188 3190 3190 3191 3193 3194 3195 3196 3196 3197 3197 3198 3198 3199 3199 3200 3200 3201 3201 3202 3202 3203 3203 3204 3204 3204 3205 3205 3205 3205 3205 3206 3206 3206 3206 3206 3206 3206 3206 3206 3206 3206 3206 3206 3206 3206 3206 3206 3206 3206 3206 3206 3205 3205 3205 3204 3204 3204 3204 3203 3203 3203 3203 3203 3202 3202 3201
3182 3183 3183 3184 3185 3186 3186 3186 3186 3186 3187 3187 3187 3187 3188 3188 3189 3190 3190 3191 3192 3193 3194 3195 3196 3197 3197 3198 3199 3199 3199 3200 3201 3201 3202 3202 3203 3203 3203 3204 3205 3205 3205 3206 3206 3206 3206 3206 3207 3207 3207 3207 3207 3207 3207 3207 3207 3207 3207 3207 3207 3207 3207 3207 3207 3207 3207 3207 3207 3207 3206 3206 3206 3205 3205 3205 3205 3204 3204 3204 3203 3203 3203 3202 3202
3183 3184 3185 3185 3186 3187 3187 3187 3187 3187 3188 3188 3188 3188 3190 3190 3190 3191 3192 3192 3193 3194 3195 3196 3197 3198 3199 3199 3200 3200 3201 3202 3202 3202 3203 3203 3204 3204 3205 3205 3206 3206 3207 3207 3207 3207 3208 3208 3208 3208 3208 3208 3208 3208 3208 3209 3209 3209 3209 3209 3209 3209 3209 3209 3209 3208 3208 3208 3208 3208 3207 3207 3207 3206 3206 3206 3205 3205 3204 3204 3204 3203 3203 3202 3202
3184 3185 3186 3187 3187 3187 3187 3187 3188 3188 3189 3189 3189 3190 3191 3192 3192 3193 3193 3194 3194 3195 3197 3197 3198 3199 3200 3200 3201 3201 3202 3202 3203 3203 3204 3204 3205 3205 3206 3206 3207 3208 3208 3208 3208 3209 3210 3210 3209 3209 3210 3210 3210 3210 3210 3210 3210 3210 3210 3210 3210 3210 3210 3210 3210 3210 3210 3209 3209 3209 3208 3208 3207 3207 3206 3206 3206 3205 3205 3204 3204 3204 3203 3202 3202
3184 3185 3186 3187 3188 3188 3188 3188 3188 3189 3190 3190 3190 3191 3192 3192 3193 3193 3194 3195 3196 3197 3198 3199 3200 3200 3201 3201 3202 3202 3203 3203 3204 3204 3205 3205 3206 3207 3207 3208 3208 3209 3209 3209 3210 3210 3211 3211 3211 3211 3211 3211 3211 3211 3212 3212 3212 3212 3212 3212 3212 3211 3211 3211 3211 3211 3211 3211 3210 3210 3209 3209 3208 3207 3207 3206 3206 3206 3205 3205 3204 3204 3203 3202 3202
3185 3186 3187 3188 3188 3189 3189 3189 3189 3190 3191 3191 3192 3192 3193 3193 3194 3195 3195 3196 3197 3198 3199 3200 3201 3201 3202 3202 3203 3203 3203 3204 3205 3205 3206 3207 3207 3208 3208 3209 3210 3210 3210 3211 3211 3211 3212 3212 3212 3212 3212 3212 3212 3213 3213 3213 3213 3213 3213 3213 3213 3213 3213 3213 3213 3213 3212 3212 3211 3211 3210 3209 3209 3208 3208 3207 3206 3206 3205 3205 3204 3204 3203 3203 3202
3186 3187 3188 3188 3189 3189 3190 3190 3190 3191 3192 3192 3193 3193 3194 3194 3195 3196 3197 3197 3198 3199 3200 3201 3201 3202 3203 3203 3203 3204 3204 3205 3205 3206 3207 3208 3209 3209 3209 3210 3211 3211 3212 3212 3212 3213 3213 3213 3213 3213 3213 3214 3214 3214 3215 3215 3215 3215 3215 3215 3214 3214 3214 3214 3214 3214 3213 3213 3212 3212 3211 3210 3209 3209 3208 3208 3207 3206 3205 3205 3205 3204 3203 3203 3202
3187 3188 3189 3189 3190 3190 3190 3191 3191 3192 3193 3193 3194 3194 3195 3196 3196 3197 3197 3198 3199 3200 3201 3202 3202 3203 3204 3204 3204 3205 3206 3206 3207 3207 3208 3208 3209 3210 3211 3211 3212 3212 3213 3213 3213 3213 3214 3214 3214 3214 3215 3215 3215 3216 3216 3216 3216 3216 3216 3216 3216 3216 3216 3215 3215 3215 3214 3214 3213 3212 3212 3211 3210 3210 3209 3208 3208 3207 3206 3205 3205 3204 3204 3203 3203
3187 3188 3189 3190 3190 3191 3191 3192 3192 3193 3194 3194 3195 3195 3196 3197 3197 3198 3198 3199 3200 3201 3202 3202 3203 3204 3205 3205 3206 3206 3207 3207 3208 3208 3209 3209 3210 3211 3212 3212 3213 3213 3213 3214 3214 3214 3215 3215 3215 3216 3216 3216 3217 3217 3217 3217 3218 3218 3218 3218 3217 3217 3217 3216 3216 3216 3215 3215 3214 3213 3213 3212 3211 3211 3210 3209 3208 3208 3207 3206 3205 3205 3204 3204 3203
3188 3189 3190 3191 3191 3192 3192 3192 3193 3194 3194 3195 3195 3196 3197 3197 3198 3198 3199 3199 3200 3201 3202 3203 3204 3204 3205 3206 3207 3207 3207 3208 3209 3209 3210 3210 3211 3212 3212 3213 3214 3214 3214 3215 3215 3215 3216 3216 3217 3217 3217 3218 3218 3218 3219 3219 3219 3219 3219 3219 3218 3218 3218 3217 3217 3217 3216 3215 3215 3214 3214 3213 3212 3212 3211 3210 3209 3208 3207 3207 3206 3205 3205 3204 3203
3189 3190 3191 3191 3192 3192 3193 3193 3194 3194 3194 3195 3196 3197 3197 3197 3198 3199 3199 3200 3201 3202 3203 3203 3204 3205 3206 3207 3207 3208 3208 3209 3210 3210 3211 3211 3212 3213 3213 3214 3215 3215 3216 3216 3216 3216 3217 3218 3218 3218 3218 3219 3219 3220 3220 3220 3221 3221 3221 3220 3219 3219 3219 3219 3218 3218 3217 3216 3216 3215 3215 3214 3213 3212 3212 3211 3210 3209 3208 3208 3207 3206 3205 3204 3203
3189 3190 3191 3192 3192 3193 3193 3194 3194 3194 3195 3195 3196 3196 3197 3198 3198 3198 3199 3200 3201 3202 3202 3203 3204 3205 3206 3207 3208 3208 3209 3210 3210 3211 3212 3212 3213 3214 3214 3215 3216 3216 3217 3217 3217 3218 3219 3219 3219 3219 3220 3220 3221 3221 3222 3222 3222 3222 3222 3221 3220 3220 3220 3220 3219 3219 3218 3217 3217 3216 3216 3215 3214 3213 3213 3212 3211 3210 3210 3209 3208 3207 3206 3205 3204
3190 3191 3191 3192 3192 3193 3193 3194 3194 3194 3195 3195 3196 3196 3197 3197 3197 3198 3199 3200 3201 3201 3202 3204 3205 3205 3206 3207 3208 3209 3209 3210 3211 3212 3212 3213 3214 3215 3216 3216 3217 3217 3218 3218 3219 3219 3220 3220 3221 3221 3221 3221 3222 3223 3223 3223 3223 3223 3223 3222 3221 3221 3221 3221 3221 3220 3219 3219 3218 3217 3216 3216 3215 3215 3214 3213 3212 3212 3211 3210 3209 3208 3207 3206 3205
3190 3191 3191 3192 3192 3193 3193 3193 3194 3194 3194 3195 3195 3196 3196 3195 3196 3198 3199 3200 3200 3201 3202 3204 3205 3206 3206 3207 3208 3209 3209 3210 3211 3212 3213 3214 3215 3216 3217 3217 3218 3218 3219 3219 3220 3220 3221 3221 3222 3222 3222 3223 3223 3224 3224 3224 3224 3224 3224 3223 3223 3222 3222 3222 3222 3221 3220 3220 3219 3218 3218 3217 3216 3216 3215 3214 3214 3213 3212 3211 3210 3209 3208 3206 3205
3190 3191 3191 3192 3192 3192 3193 3193 3193 3193 3193 3194 3194 3194 3196 3196 3197 3199 3199 3199 3200 3201 3202 3203 3204 3205 3207 3208 3209 3209 3210 3210 3212 3213 3213 3214 3215 3216 3218 3218 3219 3219 3220 3220 3221 3221 3222 3222 3223 3223 3224 3224 3225 3225 3226 3225 3225 3225 3225 3224 3224 3223 3223 3223 3223 3222 3222 3221 3220 3219 3219 3218 3218 3217 3216 3216 3215 3214 3213 3212 3212 3211 3209 3207 3206
3190 3191 3191 3191 3192 3192 3192 3192 3192 3193 3193 3193 3193 3194 3196 3197 3197 3198 3199 3199 3199 3200 3201 3201 3203 3205 3206 3208 3209 3210 3210 3211 3212 3213 3214 3215 3216 3217 3218 3219 3219 3220 3221 3221 3222 3222 3223 3223 3224 3225 3225 3226 3226 3227 3227 3226 3226 3226 3226 3225 3225 3224 3224 3224 3224 3224 3223 3222 3221 3221 3220 3219 3219 3218 3218 3217 3216 3215 3214 3214 3213 3212 3211 3209 3207
3190 3190 3190 3191 3191 3192 3192 3192 3192 3192 3192 3192 3193 3195 3196 3196 3196 3197 3198 3198 3199 3200 3200 3200 3201 3204 3206 3207 3209 3210 3211 3212 3213 3214 3214 3215 3216 3218 3219 3219 3220 3221 3222 3222 3223 3223 3224 3225 3225 3226 3227 3227 3227 3228 3228 3227 3227 3227 3227 3226 3226 3226 3226 3225 3225 3225 3224 3223 3222 3222 3221 3221 3220 3220 3219 3218 3217 3217 3216 3215 3214 3214 3212 3210 3209
3190 3190 3190 3190 3191 3191 3191 3191 3191 3191 3192 3192 3193 3194 3195 3195 3196 3197 3197 3198 3198 3198 3200 3201 3201 3203 3206 3207 3209 3211 3212 3213 3214 3215 3215 3216 3217 3218 3219 3220 3221 3222 3223 3224 3224 3225 3225 3226 3227 3227 3228 3228 3228 3229 3229 3228 3228 3228 3228 3227 3227 3227 3227 3227 3226 3226 3225 3224 3224 3223 3222 3222 3221 3221 3220 3219 3219 3218 3217 3216 3216 3215 3214 3211 3210
3190 3190 3190 3190 3191 3191 3191 3190 3191 3191 3192 3192 3193 3194 3194 3194 3195 3196 3196 3197 3198 3198 3200 3202 3202 3204 3206 3207 3210 3211 3212 3213 3214 3216 3216 3217 3218 3219 3220 3221 3222 3223 3224 3225 3225 3226 3227 3227 3228 3229 3229 3229 3229 3229 3230 3229 3229 3229 3229 3228 3228 3228 3228 3228 3227 3227 3226 3225 3225 3224 3224 3223 3223 3222 3221 3221 3220 3219 3218 3218 3217 3217 3215 3213 3211
3190 3190 3190 3191 3191 3191 3191 3191 3191 3192 3192 3192 3193 3193 3194 3194 3194 3195 3196 3196 3197 3199 3200 3202 3204 3206 3207 3209 3210 3211 3212 3213 3215 3216 3217 3218 3219 3220 3221 3222 3223 3224 3225 3226 3226 3227 3228 3228 3229 3230 3230 3230 3230 3230 3231 3231 3231 3230 3230 3230 3229 3229 3229 3229 3228 3228 3228 3227 3226 3226 3225 3225 3224 3224 3223 3222 3222 3221 3220 3219 3219 3218 3217 3214 3212
3190 3191 3191 3191 3191 3191 3191 3192 3192 3192 3193 3192 3193 3194 3194 3194 3194 3195 3196 3196 3198 3200 3200 3202 3205 3206 3208 3209 3210 3211 3212 3214 3216 3217 3218 3219 3220 3221 3222 3223 3224 3225 3226 3227 3227 3228 3229 3230 3230 3231 3231 3231 3231 3232 3232 3232 3232 3231 3231 3231 3230 3230 3230 3230 3230 3230 3229 3228 3227 3227 3227 3226 3226 3225 3225 3224 3223 3222 3221 3220 3220 3220 3219 3215 3213
3191 3191 3191 3191 3191 3191 3192 3192 3192 3193 3193 3193 3193 3194 3194 3193 3194 3196 3195 3196 3198 3200 3200 3201 3205 3207 3208 3210 3211 3212 3213 3214 3216 3218 3219 3220 3221 3222 3223 3224 3225 3226 3227 3228 3228 3229 3230 3231 3232 3232 3232 3232 3232 3233 3233 3233 3233 3232 3232 3232 3232 3231 3231 3231 3231 3231 3231 3230 3229 3228 3228 3228 3227 3227 3226 3226 3225 3224 3223 3222 3221 3222 3222 3218 3214
3191 3191 3191 3191 3192 3192 3192 3192 3193 3193 3193 3193 3193 3194 3194 3193 3195 3196 3195 3196 3199 3200 3200 3201 3204 3208 3208 3210 3211 3212 3214 3215 3217 3219 3220 3220 3221 3222 3223 3225 3226 3227 3228 3228 3229 3230 3231 3232 3233 3233 3233 3233 3233 3234 3234 3234 3234 3233 3233 3233 3233 3233 3233 3233 3233 3233 3232 3231 3230 3230 3230 3229 3229 3228 3228 3227 3227 3226 3224 3223 3222 3222 3224 3223 3219
3192 3192 3192 3192 3192 3192 3192 3193 3193 3193 3193 3194 3194 3195 3195 3195 3196 3197 3196 3197 3199 3200 3201 3201 3205 3208 3209 3210 3211 3212 3214 3216 3218 3219 3220 3221 3222 3223 3224 3226 3227 3228 3228 3229 3230 3231 3232 3233 3233 3234 3234 3234 3235 3235 3236 3235 3235 3234 3234 3234 3234 3234 3234 3234 3234 3234 3234 3233 3232 3232 3231 3231 3230 3230 3230 3229 3229 3228 3226 3225 3223 3222 3224 3226 3224
3192 3192 3193 3193 3193 3193 3193 3193 3193 3194 3194 3194 3195 3196 3195 3195 3197 3198 3197 3198 3199 3201 3202 3203 3205 3208 3209 3211 3212 3213 3215 3217 3219 3220 3221 3222 3223 3224 3225 3226 3227 3229 3229 3230 3231 3232 3233 3233 3234 3235 3235 3236 3236 3237 3237 3237 3236 3235 3235 3235 3235 3235 3235 3236 3236 3236 3235 3234 3233 3233 3233 3232 3232 3232 3231 3231 3231 3230 3228 3226 3225 3223 3222 3224 3225
3193 3193 3194 3194 3194 3194 3194 3194 3194 3194 3194 3195 3195 3196 3196 3196 3197 3198 3198 3199 3200 3202 3203 3204 3206 3208 3210 3211 3213 3215 3216 3218 3220 3221 3222 3223 3224 3225 3226 3227 3228 3229 3230 3231 3232 3233 3234 3235 3235 3236 3237 3237 3237 3237 3238 3237 3237 3237 3236 3236 3236 3237 3237 3237 3237 3237 3236 3236 3235 3235 3234 3234 3233 3233 3233 3233 3232 3231 3230 3228 3227 3225 3223 3222 3223
3194 3194 3194 3194 3194 3195 3195 3195 3195 3195 3195 3195 3196 3196 3197 3197 3198 3199 3200 3200 3201 3203 3205 3206 3208 3209 3211 3212 3214 3215 3217 3219 3220 3222 3223 3224 3225 3226 3227 3228 3229 3231 3231 3232 3233 3234 3235 3236 3237 3237 3238 3238 3238 3238 3238 3238 3238 3238 3237 3237 3238 3238 3238 3238 3239 3238 3238 3237 3237 3236 3236 3235 3235 3235 3235 3234 3234 3233 3232 3230 3228 3227 3225 3224 3222
3194 3195 3195 3195 3195 3196 3196 3196 3196 3196 3196 3196 3196 3197 3197 3198 3198 3199 3200 3202 3203 3204 3206 3208 3209 3210 3212 3213 3215 3216 3218 3220 3221 3223 3224 3225 3227 3227 3229 3230 3231 3232 3232 3233 3234 3235 3236 3237 3238 3239 3239 3240 3240 3240 3239 3240 3240 3239 3239 3239 3239 3239 3240 3240 3240 3239 3239 3238 3238 3238 3237 3237 3237 3236 3236 3236 3235 3234 3233 3232 3230 3229 3227 3226 3224
3195 3196 3196 3196 3196 3197 3197 3197 3196 3197 3197 3197 3197 3197 3198 3199 3199 3200 3202 3203 3204 3206 3207 3209 3210 3211 3213 3214 3216 3217 3219 3221 3223 3224 3225 3227 3228 3229 3230 3231 3232 3233 3233 3234 3235 3236 3237 3238 3239 3240 3240 3241 3241 3241 3241 3241 3241 3241 3240 3241 3241 3241 3241 3241 3241 3241 3240 3240 3239 3239 3239 3238 3238 3238 3237 3237 3236 3235 3234 3233 3232 3230 3229 3227 3225
3196 3196 3197 3197 3198 3198 3198 3198 3198 3198 3198 3198 3198 3199 3199 3200 3201 3202 3203 3204 3206 3207 3208 3210 3211 3213 3214 3216 3217 3219 3221 3222 3224 3225 3226 3228 3229 3230 3231 3232 3233 3234 3234 3235 3236 3237 3238 3239 3240 3241 3242 3242 3242 3242 3243 3243 3243 3242 3242 3242 3242 3242 3242 3242 3242 3242 3241 3241 3241 3240 3240 3240 3239 3239 3239 3238 3237 3236 3235 3234 3233 3232 3230 3229 3226
3196 3197 3198 3198 3198 3199 3199 3199 3199 3199 3200 3200 3200 3200 3201 3201 3202 3203 3204 3206 3207 3208 3209 3211 3212 3214 3216 3217 3219 3221 3222 3224 3225 3226 3228 3229 3230 3231 3232 3233 3234 3235 3235 3236 3237 3238 3239 3240 3241 3242 3243 3243 3244 3244 3244 3244 3244 3244 3244 3244 3244 3244 3244 3244 3244 3243 3243 3242 3242 3242 3241 3241 3241 3240 3240 3239 3238 3237 3237 3236 3234 3233 3232 3230 3228
3197 3198 3199 3199 3199 3200 3200 3200 3200 3201 3201 3201 3201 3202 3202 3203 3204 3205 3206 3207 3209 3210 3211 3212 3214 3216 3217 3219 3220 3222 3223 3225 3226 3227 3229 3230 3231 3232 3233 3234 3235 3235 3236 3237 3238 3239 3240 3241 3242 3243 3244 3244 3245 3245 3245 3245 3245 3245 3245 3245 3245 3245 3245 3245 3245 3244 3244 3244 3243 3243 3243 3242 3242 3242 3241 3240 3239 3238 3238 3237 3235 3234 3233 3231 3229
3198 3199 3199 3200 3200 3201 3201 3201 3202 3202 3203 3203 3203 3203 3204 3204 3205 3207 3208 3209 3210 3211 3213 3214 3216 3217 3219 3220 3222 3223 3224 3226 3227 3228 3230 3231 3232 3233 3234 3235 3236 3236 3237 3238 3239 3239 3241 3242 3243 3244 3245 3245 3246 3246 3246 3246 3247 3247 3247 3247 3247 3246 3246 3246 3246 3246 3245 3245 3244 3244 3244 3244 3243 3243 3242 3241 3241 3240 3239 3237 3236 3235 3234 3232 3230
3199 3200 3200 3201 3201 3202 3202 3202 3203 3203 3204 3205 3205 3205 3206 3206 3207 3208 3210 3211 3212 3213 3215 3216 3218 3219 3220 3222 3223 3224 3226 3227 3228 3229 3230 3232 3233 3234 3235 3235 3236 3237 3238 3239 3239 3240 3241 3243 3244 3245 3246 3246 3247 3247 3247 3247 3248 3248 3248 3248 3248 3248 3247 3247 3247 3247 3247 3246 3246 3245 3245 3245 3244 3244 3243 3242 3242 3241 3239 3238 3237 3236 3235 3233 3232
3199 3200 3201 3201 3202 3202 3203 3204 3204 3204 3205 3206 3207 3207 3208 3208 3209 3210 3211 3213 3214 3215 3217 3218 3220 3221 3222 3223 3224 3226 3227 3228 3229 3230 3231 3232 3234 3234 3235 3236 3237 3238 3238 3239 3240 3241 3241 3243 3244 3245 3246 3247 3247 3248 3248 3248 3249 3249 3249 3249 3249 3249 3248 3248 3248 3248 3248 3247 3247 3246 3246 3246 3245 3245 3244 3243 3243 3242 3240 3239 3238 3237 3235 3234 3232
3200 3201 3202 3202 3203 3203 3204 3204 3205 3205 3206 3207 3208 3208 3209 3210 3211 3212 3213 3214 3215 3217 3218 3219 3221 3222 3223 3224 3225 3226 3227 3229 3230 3231 3232 3233 3234 3235 3236 3237 3238 3238 3239 3240 3241 3241 3242 3243 3245 3246 3247 3248 3248 3248 3249 3249 3250 3250 3250 3250 3250 3250 3250 3250 3250 3249 3249 3248 3248 3247 3247 3246 3246 3245 3245 3244 3243 3242 3241 3240 3239 3237 3236 3235 3233
3201 3202 3203 3203 3204 3204 3205 3205 3206 3207 3207 3208 3209 3210 3211 3212 3213 3214 3215 3216 3217 3218 3219 3220 3222 3223 3224 3225 3226 3227 3228 3229 3230 3232 3233 3234 3235 3236 3237 3237 3238 3239 3240 3240 3241 3242 3243 3243 3245 3246 3247 3248 3249 3249 3249 3250 3250 3250 3251 3251 3251 3251 3251 3251 3251 3251 3250 3250 3249 3249 3248 3247 3247 3246 3246 3245 3244 3243 3242 3241 3239 3238 3237 3235 3234
3201 3202 3203 3204 3205 3205 3206 3206 3207 3207 3208 3209 3210 3211 3212 3213 3214 3215 3216 3217 3218 3219 3220 3221 3222 3224 3225 3226 3227 3228 3229 3230 3231 3232 3233 3234 3235 3236 3237 3238 3239 3239 3240 3241 3242 3243 3243 3244 3245 3247 3248 3249 3250 3250 3250 3250 3250 3251 3251 3251 3252 3252 3252 3252 3252 3252 3252 3251 3250 3250 3249 3248 3248 3247 3246 3246 3245 3244 3243 3242 3240 3239 3237 3236 3235
3202 3203 3203 3204 3205 3206 3206 3207 3208 3208 3209 3210 3211 3212 3213 3214 3215 3216 3217 3218 3219 3220 3221 3222 3223 3224 3225 3226 3227 3228 3229 3231 3232 3233 3234 3235 3236 3237 3237 3238 3239 3240 3240 3241 3242 3243 3244 3245 3246 3247 3248 3249 3250 3251 3251 3251 3251 3251 3252 3252 3253 3253 3253 3253 3253 3253 3252 3252 3251 3250 3250 3249 3249 3248 3247 3246 3246 3245 3244 3242 3241 3240 3238 3237 3235
3202 3203 3204 3205 3205 3206 3207 3208 3208 3209 3210 3211 3212 3213 3214 3215 3216 3217 3218 3219 3220 3221 3222 3223 3224 3225 3226 3227 3228 3229 3230 3232 3232 3233 3234 3235 3236 3237 3238 3239 3240 3240 3241 3242 3243 3244 3244 3245 3246 3247 3248 3249 3250 3251 3252 3252 3252 3252 3253 3253 3253 3254 3254 3254 3253 3253 3253 3252 3252 3251 3250 3250 3249 3249 3248 3247 3246 3245 3244 3243 3242 3241 3239 3238 3236
3202 3203 3204 3205 3206 3207 3208 3208 3209 3210 3211 3212 3213 3214 3215 3216 3218 3218 3219 3220 3221 3222 3223 3224 3225 3226 3227 3228 3229 3230 3231 3232 3233 3234 3234 3235 3236 3237 3238 3239 3240 3240 3241 3242 3243 3244 3245 3246 3246 3247 3249 3249 3250 3251 3252 3253 3253 3253 3253 3253 3254 3254 3254 3254 3254 3254 3253 3253 3252 3252 3251 3250 3250 3249 3249 3248 3247 3246 3245 3244 3243 3242 3240 3239 3237
3202 3203 3204 3205 3206 3207 3208 3209 3210 3211 3212 3213 3214 3215 3216 3217 3218 3219 3220 3221 3222 3223 3224 3225 3226 3227 3228 3229 3230 3231 3232 3233 3233 3234 3235 3236 3236 3237 3238 3239 3240 3241 3242 3242 3243 3244 3245 3246 3247 3248 3249 3249 3250 3251 3252 3253 3253 3253 3253 3254 3254 3254 3254 3254 3254 3254 3254 3254 3253 3253 3252 3251 3250 3250 3249 3248 3247 3246 3245 3244 3243 3242 3241 3240 3238
3202 3203 3204 3205 3206 3207 3208 3209 3210 3212 3212 3213 3214 3216 3217 3218 3219 3220 3221 3222 3223 3224 3225 3226 3227 3228 3229 3230 3231 3231 3232 3233 3234 3235 3235 3236 3237 3237 3238 3239 3240 3241 3242 3243 3244 3244 3245 3246 3247 3248 3249 3250 3250 3251 3252 3252 3253 3253 3254 3254 3254 3254 3255 3255 3255 3255 3255 3254 3254 3253 3253 3252 3251 3250 3250 3249 3248 3247 3246 3245 3244 3243 3242 3241 3239
3201 3202 3204 3205 3206 3207 3208 3210 3211 3212 3213 3214 3215 3216 3217 3218 3219 3220 3220 3222 3223 3224 3225 3226 3227 3228 3229 3230 3231 3232 3233 3234 3235 3235 3236 3236 3237 3238 3238 3239 3240 3241 3242 3243 3244 3245 3245 3246 3247 3248 3249 3249 3250 3251 3252 3252 3253 3253 3254 3254 3254 3255 3255 3255 3255 3255 3255 3255 3254 3254 3253 3252 3252 3251 3250 3249 3248 3248 3247 3246 3245 3243 3242 3241 3240
3201 3202 3204 3205 3207 3208 3209 3210 3211 3212 3213 3214 3215 3216 3217 3218 3219 3220 3221 3222 3223 3225 3226 3227 3228 3229 3230 3231 3232 3233 3234 3234 3235 3236 3236 3237 3237 3238 3239 3239 3240 3241 3242 3243 3244 3244 3245 3246 3247 3248 3249 3249 3250 3251 3252 3252 3253 3253 3253 3254 3254 3255 3255 3255 3255 3255 3255 3254 3254 3254 3253 3253 3252 3252 3251 3250 3249 3248 3247 3246 3246 3244 3243 3242 3241
3202 3202 3204 3205 3206 3208 3209 3210 3211 3212 3213 3214 3216 3217 3218 3219 3220 3221 3222 3223 3224 3226 3227 3228 3229 3230 3231 3231 3232 3233 3234 3235 3236 3236 3237 3238 3238 3239 3239 3240 3240 3241 3242 3242 3243 3244 3245 3246 3247 3248 3249 3249 3250 3251 3251 3252 3252 3253 3253 3253 3254 3254 3254 3254 3255 3255 3254 3254 3254 3254 3254 3253 3253 3252 3251 3250 3249 3248 3248 3247 3246 3245 3244 3243 3242
3202 3203 3204 3205 3206 3207 3209 3210 3211 3212 3213 3215 3216 3217 3218 3219 3221 3222 3223 3224 3225 3226 3227 3228 3229 3230 3231 3232 3233 3233 3234 3235 3236 3237 3237 3238 3239 3239 3240 3240 3241 3241 3242 3242 3243 3244 3245 3246 3247 3247 3248 3249 3250 3250 3251 3251 3252 3252 3253 3253 3254 3254 3254 3254 3254 3255 3254 3254 3254 3254 3254 3253 3253 3252 3251 3250 3250 3249 3248 3247 3247 3246 3245 3244 3243
3202 3203 3204 3205 3206 3207 3209 3210 3211 3212 3213 3215 3216 3217 3218 3220 3221 3222 3223 3224 3225 3226 3227 3228 3229 3230 3231 3232 3233 3234 3235 3236 3236 3237 3237 3238 3239 3239 3240 3240 3241 3241 3242 3242 3243 3244 3245 3246 3246 3247 3248 3249 3249 3250 3251 3251 3252 3252 3253 3253 3254 3254 3254 3254 3254 3254 3254 3254 3254 3254 3254 3253 3253 3252 3251 3250 3250 3249 3249 3248 3247 3247 3246 3245 3243
3201 3203 3204 3205 3206 3207 3209 3210 3211 3212 3213 3215 3216 3217 3218 3219 3220 3222 3223 3224 3225 3226 3227 3228 3229 3230 3232 3232 3233 3234 3235 3236 3237 3237 3238 3238 3239 3239 3240 3241 3241 3241 3242 3242 3243 3244 3244 3245 3246 3247 3247 3248 3249 3249 3250 3251 3251 3252 3252 3253 3253 3254 3254 3254 3254 3254 3254 3254 3254 3254 3253 3253 3252 3252 3251 3251 3250 3249 3249 3248 3247 3247 3246 3245 3244
3201 3202 3203 3204 3206 3207 3208 3210 3211 3213 3214 3215 3216 3217 3218 3219 3220 3222 3223 3224 3225 3226 3227 3228 3229 3231 3232 3233 3234 3234 3235 3236 3237 3238 3238 3238 3239 3239 3240 3241 3241 3242 3242 3242 3243 3243 3244 3245 3245 3246 3247 3248 3248 3249 3250 3250 3251 3251 3252 3253 3253 3253 3253 3253 3253 3253 3253 3253 3253 3253 3253 3252 3252 3251 3251 3251 3250 3249 3249 3248 3248 3247 3247 3246 3244
3200 3201 3203 3204 3206 3207 3208 3210 3211 3212 3214 3215 3215 3217 3218 3219 3221 3221 3222 3224 3225 3226 3227 3229 3230 3231 3232 3233 3234 3234 3235 3236 3237 3238 3238 3239 3239 3240 3240 3241 3241 3242 3242 3243 3243 3243 3244 3244 3245 3245 3246 3247 3248 3248 3249 3250 3251 3251 3252 3252 3253 3253 3253 3253 3253 3253 3253 3253 3253 3253 3252 3252 3251 3251 3251 3250 3250 3249 3249 3248 3247 3247 3247 3246 3245